{"data":{"norad_id":56708,"epoch":"2026-09-20T23:19:34.417632Z","epoch_age_seconds":73832,"freshness":"FRESH","line1":"1 56708U 23067W   26263.97192613  .00002767  00000+0  11006-3 0  9993","line2":"2 56708  43.0026 251.8129 0001917 264.7829  95.2804 15.27575718185524","mean_motion":15.27575718,"eccentricity":0.0001917,"inclination_deg":43.0026,"raan_deg":251.8129,"arg_perigee_deg":264.7829,"mean_anomaly_deg":95.2804,"bstar":0.00011006,"rev_number":18552,"period_min":94.267012956015,"perigee_km":481.74662608548,"apogee_km":484.37720975061,"semimajor_km":6861.198917918,"source":"CELESTRAK","updated_at":"2026-09-21T09:00:33.484692Z"}}